Weather in Gerasimovka

Russia / Belgorod Oblast     50°02′34″N   38°08′22″E
temp.,
°C
wind,
m/s
gust,
m/s
humid.,
%
clouds,
%
prec.,
mm/h
press.,
hPa
HPBL,
m
11 may, tue
tue1100:00+9nne101893100 0.0 1012694
03:00+9nne71495100 0.7 1012716
06:00+11nne91693100 1.6 10111034
09:00+8ene6119191 2.3 1015878
12:00+11ene8116497 0.1 10161544
15:00+10ene9147474 0.3 10171322
18:00+8ene101682100 0.3 10171449
21:00+7e91588100 0.4 1018897
12 may, wed
wed1200:00+8e91588100 0.2 10191214
03:00+8e71387100 0.3 1020846
06:00+8e81587100 0.2 1019984
09:00+8e71391100 1.6 1019937
12:00+11ese6118298 2.2 1018966
15:00+14se7106735 3.7 10161500
18:00+14se610745 0.9 10151200
21:00+10sse398899 1.2 1016356
13 may, thu
thu1300:00+9sse2494100 1.4 1016140
03:00+10ese2394100 1.9 101685
06:00+10ese379298 0.3 1016186
09:00+16se47705 0.3 1015568
12:00+20sse575928 0.0 10151590
15:00+22sse575292 0.1 10142120
18:00+19ese2471100 0.0 101465
21:00+17ese4771100 0.0 1014120
14 may, fri
fri1400:00+15ese4683100 0.0 1014101
03:00+14ese489291 0.4 1014140
06:00+15ese4118997 0.0 1013240
09:00+21se7116933 0.0 1013622
12:00+24sse7957100 0.0 10121083
15:00+26sse6853100 0.0 10121361
18:00+24e466698 0.1 1011159
21:00+19se378472 0.6 1011131
15 may, sat
sat1500:00+17se499198 0.0 1010159
03:00+17s4994100 2.4 1009210
06:00+17ese249266 4.2 100997
09:00+21sw3476100 4.2 1011444
12:00+24ssw455591 0.0 10111363
15:00+24sw5757100 0.0 10111232
18:00+22wsw48631 0.1 1011549
21:00+16w510791 0.3 1012237